Wooster, OH

7:55 AM EST on January 16, 2018 (GMT -0500)
Wayne County

Weather History for KBJJ - October, 2011

Change the Weather History Date:

Saturday, October 22, 2011

  Actual Average Record
Temperature  
Mean Temperature 44 °F -  
Max Temperature 55 °F 57 °F 78 °F (2017)
Min Temperature 33 °F 36 °F 28 °F (1997)
Degree Days  
Heating Degree Days 21    
Moisture  
Dew Point 38 °F    
Average Humidity 81    
Maximum Humidity 100    
Minimum Humidity 49    
Precipitation  
Precipitation 0.00 in - - ()
Sea Level Pressure  
Sea Level Pressure 30.12 in    
Wind  
Wind Speed 2 mph (West)    
Max Wind Speed 8 mph    
Max Gust Speed -    
Visibility 8 miles    
Events      
Averages and records for this station are not official NWS values.
T = Trace of Precipitation, MM = Missing Value Source: NWS Daily Summary

Daily Weather History Graph

Daily Weather History Graph

Search for Another Location

Airport or City:

Trip Planner

Search our weather history database for the weather conditions in past years. The results will help you decide how hot, cold, wet, or windy it might be!

Date:

Astronomy

Oct. 22, 2011 Rise Set
Actual Time 7:46 AM EDT 6:37 PM EDT
Civil Twilight 7:18 AM EDT 7:05 PM EDT
Nautical Twilight 6:46 AM EDT 7:37 PM EDT
Astronomical Twilight 6:14 AM EDT 8:08 PM EDT
Moon 2:40 AM EDT (10/22) 3:55 PM EDT (10/22)
Length of Visible Light 11h 46m
Length of Day
10h 50m
Waning Crescent, 24% of the Moon is Illuminated
Oct 22
Waning Crescent
Oct 26
New
Nov 2
First Quarter
Nov 10
Full
Nov 18
Last Quarter

Hourly Weather History & Observations

Time (EDT) Temp. Windchill Dew Point Humidity Pressure Visibility Wind Dir Wind Speed Gust Speed Precip Events Conditions
12:56 AM 44.1 °F - 42.1 °F 93% 30.12 in 9.0 mi Calm Calm - 0.00 in   Overcast
1:56 AM 44.1 °F - 41.0 °F 89% 30.12 in 10.0 mi Calm Calm - N/A   Overcast
2:10 AM 44.6 °F 43.1 °F 41.0 °F 87% 30.09 in 10.0 mi WSW 3.5 mph - N/A   Overcast
2:56 AM 44.1 °F 42.5 °F 41.0 °F 89% 30.11 in 10.0 mi West 3.5 mph - N/A   Overcast
3:38 AM 44.6 °F - 41.0 °F 87% 30.09 in 10.0 mi Calm Calm - N/A   Overcast
3:56 AM 43.0 °F - 41.0 °F 93% 30.11 in 10.0 mi Calm Calm - N/A   Overcast
4:56 AM 41.0 °F 39.0 °F 37.9 °F 89% 30.11 in 10.0 mi SSW 3.5 mph - N/A   Partly Cloudy
5:56 AM 37.0 °F - 36.0 °F 96% 30.12 in 6.0 mi Calm Calm - N/A   Scattered Clouds
6:56 AM 34.0 °F - 34.0 °F 100% 30.14 in 5.0 mi Calm Calm - N/A   Clear
8:02 AM 33.8 °F 30.8 °F 32.0 °F 93% 30.12 in 1.8 mi WNW 3.5 mph - N/A   Clear
8:12 AM 33.8 °F - 33.8 °F 100% 30.12 in 3.0 mi Calm Calm - N/A   Clear
8:56 AM 39.0 °F - 39.0 °F 100% 30.15 in 3.0 mi Calm Calm - N/A   Clear
9:56 AM 46.0 °F 43.1 °F 39.0 °F 76% 30.16 in 10.0 mi West 5.8 mph - N/A   Clear
10:56 AM 48.9 °F - 36.0 °F 61% 30.16 in 10.0 mi WNW 6.9 mph - N/A   Clear
12:56 PM 52.0 °F - 34.0 °F 50% 30.13 in 10.0 mi West 8.1 mph - N/A   Partly Cloudy
1:56 PM 54.0 °F - 36.0 °F 51% 30.12 in 10.0 mi SW 5.8 mph - N/A   Partly Cloudy
2:56 PM 55.0 °F - 36.0 °F 49% 30.10 in 10.0 mi West 5.8 mph - N/A   Partly Cloudy
3:56 PM 55.0 °F - 36.0 °F 49% 30.10 in 10.0 mi Variable 4.6 mph - N/A   Clear
4:56 PM 54.0 °F - 36.0 °F 51% 30.10 in 10.0 mi WSW 3.5 mph - N/A   Clear
5:56 PM 52.0 °F - 37.0 °F 57% 30.11 in 10.0 mi West 4.6 mph - N/A   Clear
7:56 PM 44.1 °F - 39.9 °F 85% 30.13 in 10.0 mi Calm Calm - N/A   Clear
8:56 PM 39.9 °F - 39.0 °F 97% 30.13 in 10.0 mi Calm Calm - N/A   Clear
9:56 PM 39.9 °F - 39.0 °F 97% 30.13 in 10.0 mi Calm Calm - N/A   Clear
10:56 PM 39.9 °F - 37.9 °F 93% 30.12 in 9.0 mi Calm Calm - N/A   Clear
11:56 PM 37.9 °F - 36.0 °F 93% 30.12 in 5.0 mi Calm Calm - N/A   Clear